Date_Time,Julian_Date,Latitude,Longitude,Instrument_Depth,U,V,Speed,Direction
(yyyy-mm-dd hh:mn:ss UTC),(JD),(+ deg. North),(+ deg. East),(m),(cm/s),(cm/s),(cm/s),(deg True)
1983-06-15 18:00:00 UTC,2445501.250000,28.7467,-95.2267,0206,6.47,-6.25,9.0000,134.0000
1983-06-15 18:30:00 UTC,2445501.270833,28.7467,-95.2267,0206,6.22,-5.03,8.0000,129.0000
1983-06-15 19:00:00 UTC,2445501.291667,28.7467,-95.2267,0206,6.00,-3.61,7.0000,121.0000
1983-06-15 19:30:00 UTC,2445501.312500,28.7467,-95.2267,0206,6.18,-3.29,7.0000,118.0000
1983-06-15 20:00:00 UTC,2445501.333333,28.7467,-95.2267,0206,6.24,-3.18,7.0000,117.0000
1983-06-15 20:30:00 UTC,2445501.354167,28.7467,-95.2267,0206,5.67,-1.95,6.0000,109.0000
1983-06-15 21:00:00 UTC,2445501.375000,28.7467,-95.2267,0206,6.96,-0.73,7.0000,96.0000
1983-06-15 21:30:00 UTC,2445501.395833,28.7467,-95.2267,0206,7.98,-0.56,8.0000,94.0000
1983-06-15 22:00:00 UTC,2445501.416667,28.7467,-95.2267,0206,7.90,-1.25,8.0000,99.0000
1983-06-15 22:30:00 UTC,2445501.437500,28.7467,-95.2267,0206,5.87,-1.25,6.0000,102.0000
1983-06-15 23:00:00 UTC,2445501.458333,28.7467,-95.2267,0206,2.87,-0.88,3.0000,107.0000
1983-06-15 23:30:00 UTC,2445501.479167,28.7467,-95.2267,0206,0.89,-0.45,1.0000,117.0000
1983-06-16 00:00:00 UTC,2445501.500000,28.7467,-95.2267,0206,0.88,-0.47,1.0000,118.0000
1983-06-16 00:30:00 UTC,2445501.520833,28.7467,-95.2267,0206,0.75,-0.66,1.0000,131.0000
1983-06-16 01:00:00 UTC,2445501.541667,28.7467,-95.2267,0206,0.48,-0.87,1.0000,151.0000
1983-06-16 01:30:00 UTC,2445501.562500,28.7467,-95.2267,0206,-0.17,0.98,1.0000,350.0000
1983-06-16 02:00:00 UTC,2445501.583333,28.7467,-95.2267,0206,-0.57,2.94,3.0000,349.0000
1983-06-16 02:30:00 UTC,2445501.604167,28.7467,-95.2267,0206,-1.30,3.78,4.0000,341.0000
1983-06-16 03:00:00 UTC,2445501.625000,28.7467,-95.2267,0206,-3.08,3.94,5.0000,322.0000
1983-06-16 03:30:00 UTC,2445501.645833,28.7467,-95.2267,0206,-2.88,2.78,4.0000,314.0000
1983-06-16 04:00:00 UTC,2445501.666667,28.7467,-95.2267,0206,-1.20,1.60,2.0000,323.0000
1983-06-16 04:30:00 UTC,2445501.687500,28.7467,-95.2267,0206,-0.02,1.00,1.0000,359.0000
1983-06-16 05:00:00 UTC,2445501.708333,28.7467,-95.2267,0206,2.30,1.93,3.0000,50.0000
1983-06-16 05:30:00 UTC,2445501.729167,28.7467,-95.2267,0206,4.66,3.78,6.0000,51.0000
1983-06-16 06:00:00 UTC,2445501.750000,28.7467,-95.2267,0206,5.36,4.50,7.0000,50.0000
1983-06-16 06:30:00 UTC,2445501.770833,28.7467,-95.2267,0206,5.52,4.31,7.0000,52.0000
1983-06-16 07:00:00 UTC,2445501.791667,28.7467,-95.2267,0206,5.66,4.11,7.0000,54.0000
1983-06-16 07:30:00 UTC,2445501.812500,28.7467,-95.2267,0206,5.04,4.86,7.0000,46.0000
1983-06-16 08:00:00 UTC,2445501.833333,28.7467,-95.2267,0206,3.27,5.03,6.0000,33.0000
1983-06-16 08:30:00 UTC,2445501.854167,28.7467,-95.2267,0206,3.27,5.03,6.0000,33.0000
1983-06-16 09:00:00 UTC,2445501.875000,28.7467,-95.2267,0206,3.94,4.53,6.0000,41.0000
1983-06-16 09:30:00 UTC,2445501.895833,28.7467,-95.2267,0206,5.20,4.68,7.0000,48.0000
1983-06-16 10:00:00 UTC,2445501.916667,28.7467,-95.2267,0206,5.66,4.11,7.0000,54.0000
1983-06-16 10:30:00 UTC,2445501.937500,28.7467,-95.2267,0206,4.91,3.44,6.0000,55.0000
1983-06-16 11:00:00 UTC,2445501.958333,28.7467,-95.2267,0206,5.80,3.91,7.0000,56.0000
1983-06-16 11:30:00 UTC,2445501.979167,28.7467,-95.2267,0206,6.86,4.12,8.0000,59.0000
1983-06-16 12:00:00 UTC,2445502.000000,28.7467,-95.2267,0206,6.86,4.12,8.0000,59.0000
1983-06-16 12:30:00 UTC,2445502.020833,28.7467,-95.2267,0206,5.14,3.09,6.0000,59.0000
1983-06-16 13:00:00 UTC,2445502.041667,28.7467,-95.2267,0206,4.53,2.11,5.0000,65.0000
1983-06-16 13:30:00 UTC,2445502.062500,28.7467,-95.2267,0206,4.64,1.87,5.0000,68.0000
1983-06-16 14:00:00 UTC,2445502.083333,28.7467,-95.2267,0206,3.68,1.56,4.0000,67.0000
1983-06-16 14:30:00 UTC,2445502.104167,28.7467,-95.2267,0206,4.29,2.58,5.0000,59.0000
1983-06-16 15:00:00 UTC,2445502.125000,28.7467,-95.2267,0206,4.79,3.61,6.0000,53.0000
1983-06-16 15:30:00 UTC,2445502.145833,28.7467,-95.2267,0206,5.59,4.21,7.0000,53.0000
1983-06-16 16:00:00 UTC,2445502.166667,28.7467,-95.2267,0206,5.87,3.81,7.0000,57.0000
1983-06-16 16:30:00 UTC,2445502.187500,28.7467,-95.2267,0206,5.94,3.71,7.0000,58.0000
1983-06-16 17:00:00 UTC,2445502.208333,28.7467,-95.2267,0206,6.86,4.12,8.0000,59.0000
1983-06-16 17:30:00 UTC,2445502.229167,28.7467,-95.2267,0206,6.24,3.18,7.0000,63.0000
1983-06-16 18:00:00 UTC,2445502.250000,28.7467,-95.2267,0206,6.34,2.96,7.0000,65.0000
1983-06-16 18:30:00 UTC,2445502.270833,28.7467,-95.2267,0206,6.54,2.51,7.0000,69.0000
1983-06-16 19:00:00 UTC,2445502.291667,28.7467,-95.2267,0206,6.76,1.81,7.0000,75.0000
1983-06-16 19:30:00 UTC,2445502.312500,28.7467,-95.2267,0206,7.83,1.66,8.0000,78.0000
1983-06-16 20:00:00 UTC,2445502.333333,28.7467,-95.2267,0206,8.77,2.02,9.0000,77.0000
1983-06-16 20:30:00 UTC,2445502.354167,28.7467,-95.2267,0206,9.46,3.26,10.0000,71.0000
1983-06-16 21:00:00 UTC,2445502.375000,28.7467,-95.2267,0206,9.89,4.82,11.0000,64.0000
1983-06-16 21:30:00 UTC,2445502.395833,28.7467,-95.2267,0206,9.23,5.99,11.0000,57.0000
1983-06-16 22:00:00 UTC,2445502.416667,28.7467,-95.2267,0206,9.19,7.71,12.0000,50.0000
1983-06-16 22:30:00 UTC,2445502.437500,28.7467,-95.2267,0206,9.51,8.87,13.0000,47.0000
1983-06-16 23:00:00 UTC,2445502.458333,28.7467,-95.2267,0206,9.66,8.70,13.0000,48.0000
1983-06-16 23:30:00 UTC,2445502.479167,28.7467,-95.2267,0206,10.24,9.55,14.0000,47.0000
1983-06-17 00:00:00 UTC,2445502.500000,28.7467,-95.2267,0206,9.73,10.07,14.0000,44.0000
1983-06-17 00:30:00 UTC,2445502.520833,28.7467,-95.2267,0206,8.00,10.24,13.0000,38.0000
1983-06-17 01:00:00 UTC,2445502.541667,28.7467,-95.2267,0206,6.00,10.39,12.0000,30.0000
1983-06-17 01:30:00 UTC,2445502.562500,28.7467,-95.2267,0206,5.08,11.97,13.0000,23.0000
1983-06-17 02:00:00 UTC,2445502.583333,28.7467,-95.2267,0206,4.02,12.36,13.0000,18.0000
1983-06-17 02:30:00 UTC,2445502.604167,28.7467,-95.2267,0206,3.36,12.56,13.0000,15.0000
1983-06-17 03:00:00 UTC,2445502.625000,28.7467,-95.2267,0206,2.49,11.74,12.0000,12.0000
1983-06-17 03:30:00 UTC,2445502.645833,28.7467,-95.2267,0206,2.29,10.76,11.0000,12.0000
1983-06-17 04:00:00 UTC,2445502.666667,28.7467,-95.2267,0206,2.59,9.66,10.0000,15.0000
1983-06-17 04:30:00 UTC,2445502.687500,28.7467,-95.2267,0206,2.60,7.56,8.0000,19.0000
1983-06-17 05:00:00 UTC,2445502.708333,28.7467,-95.2267,0206,2.15,5.60,6.0000,21.0000
1983-06-17 05:30:00 UTC,2445502.729167,28.7467,-95.2267,0206,1.79,4.67,5.0000,21.0000
1983-06-17 06:00:00 UTC,2445502.750000,28.7467,-95.2267,0206,2.34,5.52,6.0000,23.0000
1983-06-17 06:30:00 UTC,2445502.770833,28.7467,-95.2267,0206,1.71,4.70,5.0000,20.0000
1983-06-17 07:00:00 UTC,2445502.791667,28.7467,-95.2267,0206,1.21,4.85,5.0000,14.0000
1983-06-17 07:30:00 UTC,2445502.812500,28.7467,-95.2267,0206,1.95,5.67,6.0000,19.0000
1983-06-17 08:00:00 UTC,2445502.833333,28.7467,-95.2267,0206,2.91,5.25,6.0000,29.0000
1983-06-17 08:30:00 UTC,2445502.854167,28.7467,-95.2267,0206,3.69,4.73,6.0000,38.0000
1983-06-17 09:00:00 UTC,2445502.875000,28.7467,-95.2267,0206,4.86,5.04,7.0000,44.0000
1983-06-17 09:30:00 UTC,2445502.895833,28.7467,-95.2267,0206,4.39,4.09,6.0000,47.0000
1983-06-17 10:00:00 UTC,2445502.916667,28.7467,-95.2267,0206,3.72,3.35,5.0000,48.0000
1983-06-17 10:30:00 UTC,2445502.937500,28.7467,-95.2267,0206,2.12,2.12,3.0000,45.0000
1983-06-17 11:00:00 UTC,2445502.958333,28.7467,-95.2267,0206,1.89,2.33,3.0000,39.0000
1983-06-17 11:30:00 UTC,2445502.979167,28.7467,-95.2267,0206,3.36,4.97,6.0000,34.0000
1983-06-17 12:00:00 UTC,2445503.000000,28.7467,-95.2267,0206,3.50,6.06,7.0000,30.0000
1983-06-17 12:30:00 UTC,2445503.020833,28.7467,-95.2267,0206,3.61,6.00,7.0000,31.0000
1983-06-17 13:00:00 UTC,2445503.041667,28.7467,-95.2267,0206,3.09,5.14,6.0000,31.0000
1983-06-17 13:30:00 UTC,2445503.062500,28.7467,-95.2267,0206,2.72,5.35,6.0000,27.0000
1983-06-17 14:00:00 UTC,2445503.083333,28.7467,-95.2267,0206,2.42,4.37,5.0000,29.0000
1983-06-17 14:30:00 UTC,2445503.104167,28.7467,-95.2267,0206,2.27,4.46,5.0000,27.0000
1983-06-17 15:00:00 UTC,2445503.125000,28.7467,-95.2267,0206,2.05,5.64,6.0000,20.0000
1983-06-17 15:30:00 UTC,2445503.145833,28.7467,-95.2267,0206,1.55,5.80,6.0000,15.0000
1983-06-17 16:00:00 UTC,2445503.166667,28.7467,-95.2267,0206,0.42,5.99,6.0000,4.0000
1983-06-17 16:30:00 UTC,2445503.187500,28.7467,-95.2267,0206,0.00,6.00,6.0000,0.0000
1983-06-17 17:00:00 UTC,2445503.208333,28.7467,-95.2267,0206,1.46,6.85,7.0000,12.0000
1983-06-17 17:30:00 UTC,2445503.229167,28.7467,-95.2267,0206,3.51,7.19,8.0000,26.0000
1983-06-17 18:00:00 UTC,2445503.250000,28.7467,-95.2267,0206,4.47,6.63,8.0000,34.0000
1983-06-17 18:30:00 UTC,2445503.270833,28.7467,-95.2267,0206,5.54,7.09,9.0000,38.0000
1983-06-17 19:00:00 UTC,2445503.291667,28.7467,-95.2267,0206,5.90,6.79,9.0000,41.0000
1983-06-17 19:30:00 UTC,2445503.312500,28.7467,-95.2267,0206,5.56,5.75,8.0000,44.0000
1983-06-17 20:00:00 UTC,2445503.333333,28.7467,-95.2267,0206,4.53,3.94,6.0000,49.0000
1983-06-17 20:30:00 UTC,2445503.354167,28.7467,-95.2267,0206,5.09,3.18,6.0000,58.0000
1983-06-17 21:00:00 UTC,2445503.375000,28.7467,-95.2267,0206,5.52,2.34,6.0000,67.0000
1983-06-17 21:30:00 UTC,2445503.395833,28.7467,-95.2267,0206,6.58,2.39,7.0000,70.0000
1983-06-17 22:00:00 UTC,2445503.416667,28.7467,-95.2267,0206,6.62,2.28,7.0000,71.0000
1983-06-17 22:30:00 UTC,2445503.437500,28.7467,-95.2267,0206,6.49,2.62,7.0000,68.0000
1983-06-17 23:00:00 UTC,2445503.458333,28.7467,-95.2267,0206,6.54,2.51,7.0000,69.0000
1983-06-17 23:30:00 UTC,2445503.479167,28.7467,-95.2267,0206,6.82,1.57,7.0000,77.0000
1983-06-18 00:00:00 UTC,2445503.500000,28.7467,-95.2267,0206,6.87,1.34,7.0000,79.0000
1983-06-18 00:30:00 UTC,2445503.520833,28.7467,-95.2267,0206,7.69,2.21,8.0000,74.0000
1983-06-18 01:00:00 UTC,2445503.541667,28.7467,-95.2267,0206,7.47,2.87,8.0000,69.0000
1983-06-18 01:30:00 UTC,2445503.562500,28.7467,-95.2267,0206,5.80,3.91,7.0000,56.0000
1983-06-18 02:00:00 UTC,2445503.583333,28.7467,-95.2267,0206,4.41,5.44,7.0000,39.0000
1983-06-18 02:30:00 UTC,2445503.604167,28.7467,-95.2267,0206,4.31,5.52,7.0000,38.0000
1983-06-18 03:00:00 UTC,2445503.625000,28.7467,-95.2267,0206,5.35,5.95,8.0000,42.0000
1983-06-18 03:30:00 UTC,2445503.645833,28.7467,-95.2267,0206,4.31,5.52,7.0000,38.0000
1983-06-18 04:00:00 UTC,2445503.666667,28.7467,-95.2267,0206,2.87,4.10,5.0000,35.0000
1983-06-18 04:30:00 UTC,2445503.687500,28.7467,-95.2267,0206,3.60,3.47,5.0000,46.0000
1983-06-18 05:00:00 UTC,2445503.708333,28.7467,-95.2267,0206,5.52,2.34,6.0000,67.0000
1983-06-18 05:30:00 UTC,2445503.729167,28.7467,-95.2267,0206,6.00,-0.10,6.0000,91.0000
1983-06-18 06:00:00 UTC,2445503.750000,28.7467,-95.2267,0206,4.91,-3.44,6.0000,125.0000
1983-06-18 06:30:00 UTC,2445503.770833,28.7467,-95.2267,0206,3.07,-6.29,7.0000,154.0000
1983-06-18 07:00:00 UTC,2445503.791667,28.7467,-95.2267,0206,1.25,-7.90,8.0000,171.0000
1983-06-18 07:30:00 UTC,2445503.812500,28.7467,-95.2267,0206,-0.28,-8.00,8.0000,182.0000
1983-06-18 08:00:00 UTC,2445503.833333,28.7467,-95.2267,0206,-0.63,-8.98,9.0000,184.0000
1983-06-18 08:30:00 UTC,2445503.854167,28.7467,-95.2267,0206,-0.52,-9.99,10.0000,183.0000
1983-06-18 09:00:00 UTC,2445503.875000,28.7467,-95.2267,0206,-1.22,-9.93,10.0000,187.0000
1983-06-18 09:30:00 UTC,2445503.895833,28.7467,-95.2267,0206,-2.08,-9.78,10.0000,192.0000
1983-06-18 10:00:00 UTC,2445503.916667,28.7467,-95.2267,0206,-3.26,-9.46,10.0000,199.0000
1983-06-18 10:30:00 UTC,2445503.937500,28.7467,-95.2267,0206,-3.81,-5.87,7.0000,213.0000
1983-06-18 11:00:00 UTC,2445503.958333,28.7467,-95.2267,0206,-2.43,-1.76,3.0000,234.0000
1983-06-18 11:30:00 UTC,2445503.979167,28.7467,-95.2267,0206,-0.85,-0.53,1.0000,238.0000
1983-06-18 12:00:00 UTC,2445504.000000,28.7467,-95.2267,0206,-1.83,-0.81,2.0000,246.0000
1983-06-18 12:30:00 UTC,2445504.020833,28.7467,-95.2267,0206,-2.97,0.42,3.0000,278.0000
1983-06-18 13:00:00 UTC,2445504.041667,28.7467,-95.2267,0206,-1.36,2.67,3.0000,333.0000
1983-06-18 13:30:00 UTC,2445504.062500,28.7467,-95.2267,0206,1.17,3.83,4.0000,17.0000
1983-06-18 14:00:00 UTC,2445504.083333,28.7467,-95.2267,0206,1.45,2.62,3.0000,29.0000
1983-06-18 14:30:00 UTC,2445504.104167,28.7467,-95.2267,0206,-0.93,-0.36,1.0000,249.0000
1983-06-18 15:00:00 UTC,2445504.125000,28.7467,-95.2267,0206,-3.06,-2.57,4.0000,230.0000
1983-06-18 15:30:00 UTC,2445504.145833,28.7467,-95.2267,0206,-4.32,-4.17,6.0000,226.0000
1983-06-18 16:00:00 UTC,2445504.166667,28.7467,-95.2267,0206,-4.93,-6.30,8.0000,218.0000
1983-06-18 16:30:00 UTC,2445504.187500,28.7467,-95.2267,0206,-5.83,-9.33,11.0000,212.0000
1983-06-18 17:00:00 UTC,2445504.208333,28.7467,-95.2267,0206,-7.62,-11.74,14.0000,213.0000
1983-06-18 17:30:00 UTC,2445504.229167,28.7467,-95.2267,0206,-8.62,-11.03,14.0000,218.0000
1983-06-18 18:00:00 UTC,2445504.250000,28.7467,-95.2267,0206,-7.87,-9.06,12.0000,221.0000
1983-06-18 18:30:00 UTC,2445504.270833,28.7467,-95.2267,0206,-6.29,-7.77,10.0000,219.0000
1983-06-18 19:00:00 UTC,2445504.291667,28.7467,-95.2267,0206,-6.77,-8.67,11.0000,218.0000
1983-06-18 19:30:00 UTC,2445504.312500,28.7467,-95.2267,0206,-8.18,-8.78,12.0000,223.0000
1983-06-18 20:00:00 UTC,2445504.333333,28.7467,-95.2267,0206,-9.19,-7.71,12.0000,230.0000
1983-06-18 20:30:00 UTC,2445504.354167,28.7467,-95.2267,0206,-9.01,-6.31,11.0000,235.0000
1983-06-18 21:00:00 UTC,2445504.375000,28.7467,-95.2267,0206,-6.99,-5.66,9.0000,231.0000
1983-06-18 21:30:00 UTC,2445504.395833,28.7467,-95.2267,0206,-6.14,-6.58,9.0000,223.0000
1983-06-18 22:00:00 UTC,2445504.416667,28.7467,-95.2267,0206,-5.14,-6.13,8.0000,220.0000
1983-06-18 22:30:00 UTC,2445504.437500,28.7467,-95.2267,0206,-4.77,-5.12,7.0000,223.0000
1983-06-18 23:00:00 UTC,2445504.458333,28.7467,-95.2267,0206,-4.95,-4.95,7.0000,225.0000
1983-06-18 23:30:00 UTC,2445504.479167,28.7467,-95.2267,0206,-5.35,-5.95,8.0000,222.0000
1983-06-19 00:00:00 UTC,2445504.500000,28.7467,-95.2267,0206,-5.03,-6.22,8.0000,219.0000
1983-06-19 00:30:00 UTC,2445504.520833,28.7467,-95.2267,0206,-5.14,-6.13,8.0000,220.0000
1983-06-19 01:00:00 UTC,2445504.541667,28.7467,-95.2267,0206,-5.25,-6.04,8.0000,221.0000
1983-06-19 01:30:00 UTC,2445504.562500,28.7467,-95.2267,0206,-4.41,-5.44,7.0000,219.0000
1983-06-19 02:00:00 UTC,2445504.583333,28.7467,-95.2267,0206,-4.95,-4.95,7.0000,225.0000
1983-06-19 02:30:00 UTC,2445504.604167,28.7467,-95.2267,0206,-4.85,-3.53,6.0000,234.0000
1983-06-19 03:00:00 UTC,2445504.625000,28.7467,-95.2267,0206,-5.44,-4.41,7.0000,231.0000
1983-06-19 03:30:00 UTC,2445504.645833,28.7467,-95.2267,0206,-5.35,-5.95,8.0000,222.0000
1983-06-19 04:00:00 UTC,2445504.666667,28.7467,-95.2267,0206,-4.81,-6.39,8.0000,217.0000
1983-06-19 04:30:00 UTC,2445504.687500,28.7467,-95.2267,0206,-3.29,-6.18,7.0000,208.0000
1983-06-19 05:00:00 UTC,2445504.708333,28.7467,-95.2267,0206,-1.25,-7.90,8.0000,189.0000
1983-06-19 05:30:00 UTC,2445504.729167,28.7467,-95.2267,0206,0.47,-8.99,9.0000,177.0000
1983-06-19 06:00:00 UTC,2445504.750000,28.7467,-95.2267,0206,0.87,-9.96,10.0000,175.0000
1983-06-19 06:30:00 UTC,2445504.770833,28.7467,-95.2267,0206,0.00,-10.00,10.0000,180.0000
1983-06-19 07:00:00 UTC,2445504.791667,28.7467,-95.2267,0206,-1.22,-9.93,10.0000,187.0000
1983-06-19 07:30:00 UTC,2445504.812500,28.7467,-95.2267,0206,-1.56,-8.86,9.0000,190.0000
1983-06-19 08:00:00 UTC,2445504.833333,28.7467,-95.2267,0206,-1.55,-4.76,5.0000,198.0000
1983-06-19 08:30:00 UTC,2445504.854167,28.7467,-95.2267,0206,-1.18,-1.62,2.0000,216.0000
1983-06-19 09:00:00 UTC,2445504.875000,28.7467,-95.2267,0206,-1.99,-0.21,2.0000,264.0000
1983-06-19 09:30:00 UTC,2445504.895833,28.7467,-95.2267,0206,-2.67,1.36,3.0000,297.0000
1983-06-19 10:00:00 UTC,2445504.916667,28.7467,-95.2267,0206,-3.83,3.21,5.0000,310.0000
1983-06-19 10:30:00 UTC,2445504.937500,28.7467,-95.2267,0206,-3.60,3.47,5.0000,314.0000
1983-06-19 11:00:00 UTC,2445504.958333,28.7467,-95.2267,0206,-4.60,3.86,6.0000,310.0000
1983-06-19 11:30:00 UTC,2445504.979167,28.7467,-95.2267,0206,-6.71,4.36,8.0000,303.0000
1983-06-19 12:00:00 UTC,2445505.000000,28.7467,-95.2267,0206,-5.52,2.34,6.0000,293.0000
1983-06-19 12:30:00 UTC,2445505.020833,28.7467,-95.2267,0206,-2.19,-2.05,3.0000,227.0000
1983-06-19 13:00:00 UTC,2445505.041667,28.7467,-95.2267,0206,0.94,-5.93,6.0000,171.0000
1983-06-19 13:30:00 UTC,2445505.062500,28.7467,-95.2267,0206,1.87,-8.80,9.0000,168.0000
1983-06-19 14:00:00 UTC,2445505.083333,28.7467,-95.2267,0206,1.10,-8.93,9.0000,173.0000
1983-06-19 14:30:00 UTC,2445505.104167,28.7467,-95.2267,0206,-0.31,-8.99,9.0000,182.0000
1983-06-19 15:00:00 UTC,2445505.125000,28.7467,-95.2267,0206,-1.56,-8.86,9.0000,190.0000
1983-06-19 15:30:00 UTC,2445505.145833,28.7467,-95.2267,0206,-1.66,-7.83,8.0000,192.0000
1983-06-19 16:00:00 UTC,2445505.166667,28.7467,-95.2267,0206,-1.46,-6.85,7.0000,192.0000
1983-06-19 16:30:00 UTC,2445505.187500,28.7467,-95.2267,0206,-1.34,-6.87,7.0000,191.0000
1983-06-19 17:00:00 UTC,2445505.208333,28.7467,-95.2267,0206,-0.97,-6.93,7.0000,188.0000
1983-06-19 17:30:00 UTC,2445505.229167,28.7467,-95.2267,0206,-0.70,-7.97,8.0000,185.0000
1983-06-19 18:00:00 UTC,2445505.250000,28.7467,-95.2267,0206,-1.22,-9.93,10.0000,187.0000
1983-06-19 18:30:00 UTC,2445505.270833,28.7467,-95.2267,0206,-2.08,-11.82,12.0000,190.0000
1983-06-19 19:00:00 UTC,2445505.291667,28.7467,-95.2267,0206,-3.14,-12.61,13.0000,194.0000
1983-06-19 19:30:00 UTC,2445505.312500,28.7467,-95.2267,0206,-4.66,-12.14,13.0000,201.0000
1983-06-19 20:00:00 UTC,2445505.333333,28.7467,-95.2267,0206,-5.29,-11.88,13.0000,204.0000
1983-06-19 20:30:00 UTC,2445505.354167,28.7467,-95.2267,0206,-4.87,-12.05,13.0000,202.0000
1983-06-19 21:00:00 UTC,2445505.375000,28.7467,-95.2267,0206,-5.29,-11.88,13.0000,204.0000
1983-06-19 21:30:00 UTC,2445505.395833,28.7467,-95.2267,0206,-6.30,-11.37,13.0000,209.0000
1983-06-19 22:00:00 UTC,2445505.416667,28.7467,-95.2267,0206,-6.89,-11.02,13.0000,212.0000
1983-06-19 22:30:00 UTC,2445505.437500,28.7467,-95.2267,0206,-7.27,-10.78,13.0000,214.0000
1983-06-19 23:00:00 UTC,2445505.458333,28.7467,-95.2267,0206,-7.82,-10.38,13.0000,217.0000
1983-06-19 23:30:00 UTC,2445505.479167,28.7467,-95.2267,0206,-8.43,-11.18,14.0000,217.0000
1983-06-20 00:00:00 UTC,2445505.500000,28.7467,-95.2267,0206,-7.62,-11.74,14.0000,213.0000
1983-06-20 00:30:00 UTC,2445505.520833,28.7467,-95.2267,0206,-6.81,-13.37,15.0000,207.0000
1983-06-20 01:00:00 UTC,2445505.541667,28.7467,-95.2267,0206,-6.10,-13.70,15.0000,204.0000
1983-06-20 01:30:00 UTC,2445505.562500,28.7467,-95.2267,0206,-6.58,-13.48,15.0000,206.0000
1983-06-20 02:00:00 UTC,2445505.583333,28.7467,-95.2267,0206,-6.58,-13.48,15.0000,206.0000
1983-06-20 02:30:00 UTC,2445505.604167,28.7467,-95.2267,0206,-5.38,-14.00,15.0000,201.0000
1983-06-20 03:00:00 UTC,2445505.625000,28.7467,-95.2267,0206,-0.49,-13.99,14.0000,182.0000
1983-06-20 03:30:00 UTC,2445505.645833,28.7467,-95.2267,0206,5.02,-13.07,14.0000,159.0000
1983-06-20 04:00:00 UTC,2445505.666667,28.7467,-95.2267,0206,2.92,-12.67,13.0000,167.0000
1983-06-20 04:30:00 UTC,2445505.687500,28.7467,-95.2267,0206,-3.86,-13.46,14.0000,196.0000
1983-06-20 05:00:00 UTC,2445505.708333,28.7467,-95.2267,0206,-7.95,-12.72,15.0000,212.0000
1983-06-20 05:30:00 UTC,2445505.729167,28.7467,-95.2267,0206,-9.18,-13.11,16.0000,215.0000
1983-06-20 06:00:00 UTC,2445505.750000,28.7467,-95.2267,0206,-8.17,-12.58,15.0000,213.0000
1983-06-20 06:30:00 UTC,2445505.770833,28.7467,-95.2267,0206,-8.17,-12.58,15.0000,213.0000
1983-06-20 07:00:00 UTC,2445505.791667,28.7467,-95.2267,0206,-8.43,-11.18,14.0000,217.0000
1983-06-20 07:30:00 UTC,2445505.812500,28.7467,-95.2267,0206,-8.34,-8.63,12.0000,224.0000
1983-06-20 08:00:00 UTC,2445505.833333,28.7467,-95.2267,0206,-9.33,-7.55,12.0000,231.0000
1983-06-20 08:30:00 UTC,2445505.854167,28.7467,-95.2267,0206,-9.23,-5.99,11.0000,237.0000
1983-06-20 09:00:00 UTC,2445505.875000,28.7467,-95.2267,0206,-8.75,-4.85,10.0000,241.0000
1983-06-20 09:30:00 UTC,2445505.895833,28.7467,-95.2267,0206,-8.09,-3.95,9.0000,244.0000
1983-06-20 10:00:00 UTC,2445505.916667,28.7467,-95.2267,0206,-7.42,-3.00,8.0000,248.0000
1983-06-20 10:30:00 UTC,2445505.937500,28.7467,-95.2267,0206,-7.73,-2.07,8.0000,255.0000
1983-06-20 11:00:00 UTC,2445505.958333,28.7467,-95.2267,0206,-6.93,-0.97,7.0000,262.0000
1983-06-20 11:30:00 UTC,2445505.979167,28.7467,-95.2267,0206,-5.98,-0.52,6.0000,265.0000
1983-06-20 12:00:00 UTC,2445506.000000,28.7467,-95.2267,0206,-5.00,-0.09,5.0000,269.0000
1983-06-20 12:30:00 UTC,2445506.020833,28.7467,-95.2267,0206,-3.78,1.30,4.0000,289.0000
1983-06-20 13:00:00 UTC,2445506.041667,28.7467,-95.2267,0206,-2.88,2.78,4.0000,314.0000
1983-06-20 13:30:00 UTC,2445506.062500,28.7467,-95.2267,0206,-1.55,2.57,3.0000,329.0000
1983-06-20 14:00:00 UTC,2445506.083333,28.7467,-95.2267,0206,-0.62,1.90,2.0000,342.0000
1983-06-20 14:30:00 UTC,2445506.104167,28.7467,-95.2267,0206,0.10,2.00,2.0000,3.0000
1983-06-20 15:00:00 UTC,2445506.125000,28.7467,-95.2267,0206,0.93,2.85,3.0000,18.0000
1983-06-20 15:30:00 UTC,2445506.145833,28.7467,-95.2267,0206,2.06,3.43,4.0000,31.0000
1983-06-20 16:00:00 UTC,2445506.166667,28.7467,-95.2267,0206,4.81,6.39,8.0000,37.0000
1983-06-20 16:30:00 UTC,2445506.187500,28.7467,-95.2267,0206,8.71,13.42,16.0000,33.0000
1983-06-20 17:00:00 UTC,2445506.208333,28.7467,-95.2267,0206,10.35,15.93,19.0000,33.0000
1983-06-20 17:30:00 UTC,2445506.229167,28.7467,-95.2267,0206,8.04,7.50,11.0000,47.0000
1983-06-20 18:00:00 UTC,2445506.250000,28.7467,-95.2267,0206,6.00,-0.21,6.0000,92.0000
1983-06-20 18:30:00 UTC,2445506.270833,28.7467,-95.2267,0206,5.77,-1.65,6.0000,106.0000
1983-06-20 19:00:00 UTC,2445506.291667,28.7467,-95.2267,0206,4.85,-1.21,5.0000,104.0000
1983-06-20 19:30:00 UTC,2445506.312500,28.7467,-95.2267,0206,5.87,-1.25,6.0000,102.0000
1983-06-20 20:00:00 UTC,2445506.333333,28.7467,-95.2267,0206,9.90,-1.39,10.0000,98.0000
1983-06-20 20:30:00 UTC,2445506.354167,28.7467,-95.2267,0206,12.98,0.68,13.0000,87.0000
1983-06-20 21:00:00 UTC,2445506.375000,28.7467,-95.2267,0206,13.52,3.62,14.0000,75.0000
1983-06-20 21:30:00 UTC,2445506.395833,28.7467,-95.2267,0206,12.05,4.87,13.0000,68.0000
1983-06-20 22:00:00 UTC,2445506.416667,28.7467,-95.2267,0206,10.05,4.47,11.0000,66.0000
1983-06-20 22:30:00 UTC,2445506.437500,28.7467,-95.2267,0206,8.99,4.38,10.0000,64.0000
1983-06-20 23:00:00 UTC,2445506.458333,28.7467,-95.2267,0206,7.95,4.23,9.0000,62.0000
1983-06-20 23:30:00 UTC,2445506.479167,28.7467,-95.2267,0206,8.19,5.74,10.0000,55.0000
1983-06-21 00:00:00 UTC,2445506.500000,28.7467,-95.2267,0206,7.43,6.69,10.0000,48.0000
1983-06-21 00:30:00 UTC,2445506.520833,28.7467,-95.2267,0206,7.64,7.91,11.0000,44.0000
1983-06-21 01:00:00 UTC,2445506.541667,28.7467,-95.2267,0206,7.78,7.78,11.0000,45.0000
1983-06-21 01:30:00 UTC,2445506.562500,28.7467,-95.2267,0206,8.17,7.36,11.0000,48.0000
1983-06-21 02:00:00 UTC,2445506.583333,28.7467,-95.2267,0206,8.17,7.36,11.0000,48.0000
1983-06-21 02:30:00 UTC,2445506.604167,28.7467,-95.2267,0206,8.92,8.03,12.0000,48.0000
1983-06-21 03:00:00 UTC,2445506.625000,28.7467,-95.2267,0206,9.19,7.71,12.0000,50.0000
1983-06-21 03:30:00 UTC,2445506.645833,28.7467,-95.2267,0206,8.78,8.18,12.0000,47.0000
1983-06-21 04:00:00 UTC,2445506.666667,28.7467,-95.2267,0206,8.03,8.92,12.0000,42.0000
1983-06-21 04:30:00 UTC,2445506.687500,28.7467,-95.2267,0206,7.39,9.46,12.0000,38.0000
1983-06-21 05:00:00 UTC,2445506.708333,28.7467,-95.2267,0206,7.05,9.71,12.0000,36.0000
1983-06-21 05:30:00 UTC,2445506.729167,28.7467,-95.2267,0206,6.15,9.12,11.0000,34.0000
1983-06-21 06:00:00 UTC,2445506.750000,28.7467,-95.2267,0206,5.50,9.53,11.0000,30.0000
1983-06-21 06:30:00 UTC,2445506.770833,28.7467,-95.2267,0206,4.09,8.02,9.0000,27.0000
1983-06-21 07:00:00 UTC,2445506.791667,28.7467,-95.2267,0206,2.87,7.47,8.0000,21.0000
1983-06-21 07:30:00 UTC,2445506.812500,28.7467,-95.2267,0206,2.02,8.77,9.0000,13.0000
1983-06-21 08:00:00 UTC,2445506.833333,28.7467,-95.2267,0206,2.47,10.72,11.0000,13.0000
1983-06-21 08:30:00 UTC,2445506.854167,28.7467,-95.2267,0206,2.47,10.72,11.0000,13.0000
1983-06-21 09:00:00 UTC,2445506.875000,28.7467,-95.2267,0206,2.70,11.69,12.0000,13.0000